HULIANGWANG DIGUI-07 (62329 NORAD) Tracking and Keplerian Element Data

This shows tracking and keplerian element data for the satellite.

Feedback or suggestion? Click here.




ElementValue
Catalog62329
NameHULIANGWANG DIGUI-07
Epoch Orbit661
Epoch Day34.83599421
Epoch Year2025
RAAN151.738
Inclination86.5002
Eccentricity0.0012459
Argument of Perigee160.2723
Mean Anonmoly199.8903
Mean Motion13.37565219
Decay Rate1.07E-06
L11 62329U 24240G 25034.83599421 .00000107 00000+0 17440-3 0 9995
L22 62329 86.5002 151.7380 0012459 160.2723 199.8903 13.37565219 6616



Live tracking and technical data element details for HULIANGWANG DIGUI-07 (NORAD 62329). HULIANGWANG DIGUI-07 can be tracked NOW for your location showing map with azimuth and elevation plus other details from your city location.







IsCatalogInMostPopularTable: catalog: 62329, numindb: 13
Update: records affected: 1



GetName: 62329 HULIANGWANG DIGUI-07

Hit Count: updated at: Sun, 18 May 2025 22:20:12 GMT